This is the latest recevied weather packets stored in our database for station/object KR4ELZ. If no packets are shown the sender has not sent any weather packets the latest 10 day(s).
| Time | Temp. | Humidity | Pressure | Rain* | Wind** | Luminosity | Snow |
|---|---|---|---|---|---|---|---|
| 1778010269 | 21.11° C | 77% | 1009.4 hPa | 0 mm | - | 70 W/m² | - |
| 1778009968 | 21.11° C | 75% | 1009.2 hPa | 0 mm | - | 136 W/m² | - |
| 1778009667 | 21.11° C | 75% | 1009.4 hPa | 0 mm | - | 91 W/m² | - |
| 1778009364 | 21.11° C | 74% | 1009.6 hPa | 0 mm | - | 97 W/m² | - |
| 1778009062 | 21.67° C | 75% | 1009.5 hPa | 0 mm | - | 108 W/m² | - |
| 1778008759 | 21.67° C | 74% | 1009.7 hPa | 0 mm | - | 125 W/m² | - |
| 1778008458 | 22.22° C | 79% | 1009.7 hPa | 0 mm | - | 174 W/m² | - |
| 1778008154 | 22.22° C | 76% | 1009.8 hPa | 0 mm | - | 170 W/m² | - |
| 1778007850 | 22.22° C | 74% | 1009.8 hPa | 0 mm | - | 629 W/m² | - |
| 1778007545 | 22.22° C | 77% | 1009.9 hPa | 0 mm | - | 295 W/m² | - |
| 1778007242 | 21.11° C | 78% | 1009.8 hPa | 0 mm | - | 488 W/m² | - |
| 1778006938 | 21.11° C | 80% | 1009.7 hPa | 0 mm | - | 392 W/m² | - |
| 1778006635 | 21.11° C | 81% | 1009.7 hPa | 0 mm | - | 213 W/m² | - |
| 1778006332 | 20.56° C | 83% | 1009.8 hPa | 0 mm | - | 214 W/m² | - |
| 1778006029 | 20° C | 86% | 1009.9 hPa | 0 mm | - | 478 W/m² | - |
| 1778005726 | 19.44° C | 87% | 1010 hPa | 0 mm | - | 301 W/m² | - |
| 1778005423 | 18.89° C | 91% | 1009.9 hPa | 0 mm | - | 241 W/m² | - |
| 1778005119 | 18.89° C | 90% | 1010.2 hPa | 0 mm | - | 228 W/m² | - |
| 1778004817 | 18.33° C | 92% | 1010.1 hPa | 0 mm | - | 232 W/m² | - |
| 1778004513 | 18.33° C | 93% | 1010.2 hPa | 0 mm | - | 230 W/m² | - |
| 1778004210 | 17.78° C | 92% | 1010.3 hPa | 0 mm | - | 212 W/m² | - |
| 1778003906 | 17.78° C | 95% | 1010.5 hPa | 0 mm | - | 253 W/m² | - |
| 1778003603 | 17.22° C | 97% | 1010.5 hPa | 0 mm | - | 354 W/m² | - |
| 1778003299 | 17.22° C | 97% | 1010.6 hPa | 0 mm | - | 279 W/m² | - |
| 1778002997 | 16.67° C | 98% | 1010.6 hPa | 0 mm | - | 240 W/m² | - |
* Rain latest hour (hover to see other rain measurements)
** Current wind speed in m/s (hover to see current wind gust speed)